This is the latest recevied weather packets stored in our database for station/object DC1NF-7. If no packets are shown the sender has not sent any weather packets the latest 10 day(s).
| Time | Temp. | Humidity | Pressure | Rain* | Wind** | Luminosity | Snow |
|---|---|---|---|---|---|---|---|
| 1777799131 | 20° C | 46% | 1016.1 hPa | 0 mm | - | 589 W/m² | - |
| 1777798526 | 19.44° C | 46% | 1016.1 hPa | 0 mm | - | 604 W/m² | - |
| 1777797922 | 19.44° C | 46% | 1016.1 hPa | 0 mm | - | 601 W/m² | - |
| 1777797316 | 19.44° C | 46% | 1016.2 hPa | 0 mm | - | 557 W/m² | - |
| 1777796773 | 18.89° C | 45% | 1016.3 hPa | 0 mm | - | 515 W/m² | - |
| 1777796170 | 18.33° C | 46% | 1016.3 hPa | 0 mm | - | 498 W/m² | - |
| 1777795566 | 18.33° C | 47% | 1016.1 hPa | 0 mm | - | 414 W/m² | - |
| 1777794963 | 18.33° C | 47% | 1016.2 hPa | 0 mm | - | 500 W/m² | - |
| 1777794360 | 18.33° C | 50% | 1016.1 hPa | 0 mm | - | 475 W/m² | - |
| 1777793756 | 17.78° C | 48% | 1016.1 hPa | 0 mm | - | 489 W/m² | - |
| 1777793155 | 16.67° C | 55% | 1016 hPa | 0 mm | - | 474 W/m² | - |
| 1777792548 | 15.56° C | 58% | 1016 hPa | 0 mm | - | 208 W/m² | - |
| 1777791944 | 15.56° C | 59% | 1016 hPa | 0 mm | - | 195 W/m² | - |
| 1777791344 | 14.44° C | 63% | 1016.1 hPa | 0 mm | - | 206 W/m² | - |
| 1777790742 | 13.89° C | 65% | 1016 hPa | 0 mm | - | 165 W/m² | - |
| 1777790139 | 13.89° C | 63% | 1016 hPa | 0 mm | - | 174 W/m² | - |
| 1777789530 | 13.89° C | 65% | 1015.9 hPa | 0 mm | - | 169 W/m² | - |
| 1777788925 | 12.22° C | 72% | 1016 hPa | 0 mm | - | 228 W/m² | - |
| 1777788321 | 11.67° C | 77% | 1016.1 hPa | 0 mm | - | 206 W/m² | - |
| 1777787716 | 11.67° C | 75% | 1016.1 hPa | 0 mm | - | 187 W/m² | - |
| 1777787175 | 11.11° C | 75% | 1016 hPa | 0 mm | - | 169 W/m² | - |
| 1777786572 | 11.11° C | 76% | 1016 hPa | 0 mm | - | 133 W/m² | - |
| 1777785966 | 10.56° C | 78% | 1016 hPa | 0 mm | - | 112 W/m² | - |
| 1777785366 | 9.44° C | 81% | 1016 hPa | 0 mm | - | 92 W/m² | - |
| 1777784759 | 9.44° C | 80% | 1015.9 hPa | 0 mm | - | 81 W/m² | - |
* Rain latest hour (hover to see other rain measurements)
** Current wind speed in m/s (hover to see current wind gust speed)